269P/Jedicke (1995)

Japanese version
Home page
Updated on February 10, 2013

---------------------------------------------------------------------

* Profile

Designation 269P/1996 A1
Discovery Date January 14, 1996
Magnitude 17.0 mag
Discoverer Victoria Jedicke, Robert Jedicke (Lunar and Planetary Laboratory)

* Orbital Elements

Epoch 1995 Aug. 31.0 TT = JDT 2449960.5
T 1995 Aug. 15.86832 TT                                 MPC
q   4.0551262            (2000.0)            P               Q
n   0.05105234     Peri.  224.12083     -0.39188057     -0.91367977
a   7.1965707      Node   249.22130     +0.87280629     -0.33216213
e   0.4365196      Incl.    6.62033     +0.29092748     -0.23421698
P  19.31
From 326 observations 1993 Oct. 12-2012 Sept. 25, mean residual 0".59.

* Finding Charts

* 1995 Jan. 3 - 1997 Aug. 20

* Magnitudes Graph

        m1 =  4.2 + 5 log d + 15.0 log r

---------------------------------------------------------------------

The orbital elements are published on M.P.E.C. 2012-T07.
The charts are made with StellaNavigator Ver.2.0 for Windows (AstroArts / ASCII).
The magnitudes graphs are made with Comet for Windows.

---------------------------------------------------------------------

Copyright(C) Seiichi Yoshida (comet@aerith.net). All rights reserved.